DECAYED

CZ-2C DEB, 35417 (Decayed)

Orbit data source: Space-Track

CZ-2C DEB, 35417 was space debris in LEO originally from a launch on Sun, 18 Apr 2004 UTC launched from the Xichang Space Center, China (XSC). Debris objects in space refer to the collection of defunct objects orbiting the Earth. Examples of debris include non-operational satellites, rocket bodies, and fragments generated from explosions, collisions, or faulty payload assembly.

Not visible in the next 10 days
Identifier
35417, 2004-012L
Orbit
Decayed
Last TLE update
1 year ago
Origin
Manufacturer
CALT
Mission
Decayed spacecraft
Bus & Motor
Unknown
Mass
Unknown
Launch date (UTC)
2004-04-18 (21 years ago)
Launch vehicle
Unknown
Launch site
Xichang Space Center, China (XSC)
Object type
Payload
Rocket body
Debris
Shape & HBR
Unknown
Radar Cross Section
Small (<0.1 m²)

Expand to show TLE details & history

TLE from 1 year ago
0 CZ-2C DEB
1 35417U 04012L   24130.49124699  .20808790  25925-5  39235-2 0  9997
2 35417  97.5492 341.0194 0013504 272.0555  87.9193 16.31819264998362
Epoch: 2024-05-09T11:47Z
Definitive object data (Epoch: 2024-05-09T11:47:23.739Z)
Latitude
-0.00007°
Longitude
-63.61484°
Altitude
190.581 km
Speed
7.792 km/s
True Right ascension
22h 44m 04s
True Declination
0° 00' 00"
Sunlit
Object was in daylight at TLE epoch
Visualization observer readout
Visualization observer readout
Orbital elements
Apogee altitude
193.342 km
Perigee altitude
175.618 km
Semi-major axis
6,562.617 km
Eccentricity
0.0013504
Inclination
97.5492°
RAAN
341.0194°
Arg. of periapsis
272.0555°
True anomaly
88.07395°
Mean anomaly
87.9193°
Eccentric anomaly
87.99662°
Mean motion
4.08251 °/min
BSTAR
0.0039235
Orbital period
88.18 mins
Loading maneuver chart data...
Loading SW <> Apogee altitude chart data...
Loading historical data...
Loading historical data...
Loading historical data...
Loading historical data...
Loading historical data...
Loading historical data...
Loading historical data...

CZ-2C DEB Visibility forecast

Observer location: undefined°, undefined°

This satellite is decayed
Span
Click to sort rows by Start time (UTC) header in descending order
Start Az.
Max El. time (UTC)
Max El. Az.
Max El.
End time (UTC)
End Az.
|